Погода в Спас-Углах

Россия / Смоленская область     55°20′03″N   32°29′01″E
темп.,
°C
ветер,
м/с
пор.,
м/с
влажн.,
%
обл.,
%
осадки,
мм/ч
давл.,
гПа
погр.,
м
13 мая, чт
чт1300:00+12всв61292100 1.5 1012930
03:00+8юв5119366 1.9 1014792
06:00+7вюв4129640 0.0 1015501
09:00+11вюв6117996 0.1 1014839
12:00+13юв696896 0.3 10131385
15:00+11юв3886100 1.8 1012722
18:00+12ююв48795 1.3 1011995
21:00+8юв3996100 1.8 1012239
14 мая, пт
пт1400:00+7юв389799 0.0 1013225
03:00+7юв31196100 0.0 1013333
06:00+7юв41294100 0.0 1012375
09:00+11юв51382100 0.0 1012658
12:00+16юв596087 0.1 1011963
15:00+19ююв585513 0.1 10101557
18:00+18юв36733 0.4 1008905
21:00+13в2595100 0.8 100795
15 мая, сб
сб1500:00+13всв2497100 4.1 100686
03:00+11вюв279828 4.1 1005172
06:00+11ююв3119818 0.0 1005313
09:00+15ю478786 0.0 1005610
12:00+15ююз587947 1.3 10061043
15:00+16ююз587999 3.1 10071227
18:00+16юз488478 1.1 10081036
21:00+12ю239598 1.5 100967
16 мая, вс
вс1600:00+10ююз239637 0.0 101049
03:00+9ююз22975 0.0 101126
06:00+10юз239711 0.0 101285
09:00+14юз238550 0.0 1012513
12:00+18ююз236547 0.5 10131265
15:00+19ю3459100 0.9 10131470
18:00+17ююв247992 0.4 1013248
21:00+13вюв228999 0.6 101324
17 мая, пн
пн1700:00+13юв2289100 0.0 101338
03:00+12вюв3792100 0.0 1014122
06:00+12вюв389178 0.0 1013193
09:00+17вюв4872100 0.0 1012457
12:00+21в586095 0.0 10101039
15:00+24вюв6115799 0.0 10081550
18:00+24вюв6126250 0.0 10061288
21:00+19вюв6158018 0.3 1005683